Powrót do katalogu

FREGAT DEB

LostUNKNOWN
NORAD 45901·DEBRIS·🇷🇺 Russia

Wystrzelony Jul 18, 2011 z Baikonur Cosmodrome

Loading…

Następne Przeloty (najbliższe 24 godziny)

TLE

NieaktualneSource: Space-Track

Epoka: Mar 9, 2026, 06:50 UTC

1 45901U 11037DW  26068.28528837  .00023151  00000-0  38007-1 0  9997
2 45901  51.4410  38.9107 2053184 109.1991 274.1337 10.37930377 96931

Śledź FREGAT DEB w czasie rzeczywistym z AllMySat

Download on the App Store